This is the latest recevied weather packets stored in our database for station/object E25WRM. If no packets are shown the sender has not sent any weather packets the latest 10 day(s).
| Time | Temp. | Humidity | Pressure | Rain* | Wind** | Luminosity | Snow |
|---|---|---|---|---|---|---|---|
| 1777823714 | 33.33° C | 29% | 1002 hPa | - | - | 0 W/m² | - |
| 1777822804 | 32.78° C | 30% | 1002 hPa | - | - | 0 W/m² | - |
| 1777821894 | 33.33° C | 31% | 1002 hPa | - | - | 0 W/m² | - |
| 1777820984 | 33.33° C | 31% | 1002 hPa | - | - | 0 W/m² | - |
| 1777820074 | 33.33° C | 31% | 1002 hPa | - | - | 0 W/m² | - |
| 1777819164 | 33.89° C | 32% | 1002 hPa | - | - | 0 W/m² | - |
| 1777818254 | 34.44° C | 33% | 1001 hPa | - | - | 0 W/m² | - |
| 1777817344 | 35° C | 34% | 1001 hPa | - | - | 0 W/m² | - |
| 1777816434 | 36.11° C | 38% | 1001 hPa | - | - | 0 W/m² | - |
| 1777815524 | 37.22° C | 43% | 1001 hPa | - | - | 0 W/m² | - |
| 1777814614 | 37.22° C | 42% | 1000 hPa | - | - | 0 W/m² | - |
| 1777813704 | 37.22° C | 39% | 1000 hPa | - | - | 0 W/m² | - |
| 1777812794 | 36.67° C | 41% | 1000 hPa | - | - | 0 W/m² | - |
| 1777811884 | 36.67° C | 41% | 999 hPa | - | - | 0 W/m² | - |
| 1777810974 | 36.11° C | 42% | 999 hPa | - | - | 0 W/m² | - |
| 1777810064 | 36.11° C | 42% | 999 hPa | - | - | 0 W/m² | - |
| 1777809154 | 36.11° C | 42% | 999 hPa | - | - | 0 W/m² | - |
| 1777808244 | 36.11° C | 42% | 999 hPa | - | - | 0 W/m² | - |
| 1777807334 | 36.11° C | 41% | 999 hPa | - | - | 0 W/m² | - |
| 1777806424 | 36.67° C | 41% | 999 hPa | - | - | 0 W/m² | - |
| 1777805514 | 37.22° C | 39% | 998 hPa | - | - | 0 W/m² | - |
| 1777804604 | 37.22° C | 39% | 998 hPa | - | - | 0 W/m² | - |
| 1777803694 | 37.78° C | 37% | 998 hPa | - | - | 0 W/m² | - |
| 1777802784 | 36.67° C | 40% | 998 hPa | - | - | 0 W/m² | - |
| 1777801874 | 36.11° C | 43% | 998 hPa | - | - | 0 W/m² | - |
* Rain since midnight (hover to see other rain measurements)
** Current wind speed in m/s (hover to see current wind gust speed)